User: anonymous   Login
Location: Black Rock Desert
(40.7548°N, 119.2364°W)
Time: 21:37:42
(UTC-08:00)
Language:

Cosmos 1340 Rocket - Orbit

View from above orbital plane
View from above orbital plane
View from above satellite
View from above satellite

Ground track
Ground track

The orbit data is extracted from the following two-line orbital elements,

1 13068U 82013B   18022.87146298  .00000853  00000-0  55076-4 0  9993
2 13068  81.2055 331.6432 0021485 313.1797  46.7631 15.07089918956582
Epoch (UTC): 22 January 2018 20:54:54
Eccentricity: 0.0021485
inclination: 81.2055°
perigee height: 530 km
apogee height: 560 km
right ascension of ascending node: 331.6432°
argument of perigee: 313.1797°
revolutions per day: 15.07089918
mean anomaly at epoch: 46.7631°
orbit number at epoch: 95658

The dashed part of the orbit path shows where the satellite is in the earth's shadow,  

DLR